Raton, NM

11:46 PM MDT on June 24, 2017 (GMT -0600)
Raton Municipal-Crews

Weather History for KRTN - November, 2011

Change the Weather History Date:

Saturday, November 12, 2011

  Actual Average (KTAD) Record (KTAD)
Temperature  
Mean Temperature 52 °F -  
Max Temperature 64 °F 58 °F 79 °F (1971)
Min Temperature 39 °F 28 °F 4 °F (2014)
Degree Days  
Heating Degree Days 14    
Growing Degree Days 2 (Base 50)    
Moisture  
Dew Point 19 °F    
Average Humidity 27    
Maximum Humidity 39    
Minimum Humidity 15    
Precipitation  
Precipitation 0.00 in - - ()
Sea Level Pressure  
Sea Level Pressure 29.59 in    
Wind  
Wind Speed 15 mph (WSW)    
Max Wind Speed 33 mph    
Max Gust Speed 52 mph    
Visibility 10 miles    
Events      
Averages and records for this station are not official NWS values.
T = Trace of Precipitation, MM = Missing Value Source: NWS Daily Summary

Daily Weather History Graph

Daily Weather History Graph

Search for Another Location

Airport or City:

Trip Planner

Search our weather history database for the weather conditions in past years. The results will help you decide how hot, cold, wet, or windy it might be!

Date:

Astronomy

Nov. 12, 2011 Rise Set
Actual Time 6:32 AM MST 4:51 PM MST
Civil Twilight 6:05 AM MST 5:18 PM MST
Nautical Twilight 5:34 AM MST 5:49 PM MST
Astronomical Twilight 5:03 AM MST 6:20 PM MST
Moon 6:11 PM MST (11/12) 8:14 AM MST (11/12)
Length of Visible Light 11h 13m
Length of Day
10h 18m
Waning Gibbous, 97% of the Moon is Illuminated
Nov 12
Waning Gibbous
Nov 18
Last Quarter
Nov 24
New
Dec 2
First Quarter
Dec 10
Full

Hourly Weather History & Observations

Time (MST) Temp. Windchill Dew Point Humidity Pressure Visibility Wind Dir Wind Speed Gust Speed Precip Events Conditions
12:53 AM 43.0 °F 37.2 °F 10.9 °F 27% 29.66 in 10.0 mi SSW 10.4 mph - N/A   Clear
1:53 AM 44.1 °F 39.5 °F 10.0 °F 25% 29.63 in 10.0 mi SW 8.1 mph - N/A   Clear
2:53 AM 39.9 °F - 10.0 °F 29% 29.65 in 10.0 mi Calm Calm - N/A   Clear
3:53 AM 46.9 °F - 10.9 °F 23% 29.62 in 10.0 mi West 17.3 mph 21.9 mph N/A   Clear
4:53 AM 50.0 °F - 12.0 °F 22% 29.60 in 10.0 mi West 11.5 mph 24.2 mph N/A   Clear
5:53 AM 46.9 °F - 18.0 °F 32% 29.64 in 10.0 mi SW 12.7 mph - N/A   Clear
6:53 AM 51.1 °F - 19.0 °F 28% 29.64 in 10.0 mi West 20.7 mph 42.6 mph N/A   Clear
7:53 AM 54.0 °F - 21.0 °F 28% 29.65 in 10.0 mi West 10.4 mph 23.0 mph N/A   Clear
8:53 AM 57.0 °F - 19.9 °F 24% 29.66 in 10.0 mi WNW 12.7 mph 29.9 mph N/A   Clear
9:53 AM 59.0 °F - 18.0 °F 20% 29.65 in 10.0 mi West 18.4 mph 48.3 mph N/A   Clear
10:53 AM 62.1 °F - 17.1 °F 18% 29.63 in 10.0 mi WSW 20.7 mph 29.9 mph N/A   Clear
11:53 AM 64.0 °F - 16.0 °F 16% 29.55 in 10.0 mi West 13.8 mph 39.1 mph N/A   Clear
12:53 PM 64.0 °F - 15.1 °F 15% 29.56 in 10.0 mi West 24.2 mph 36.8 mph N/A   Clear
1:53 PM 63.0 °F - 17.1 °F 17% 29.54 in 10.0 mi West 21.9 mph 34.5 mph N/A   Clear
2:53 PM 61.0 °F - 19.0 °F 20% 29.56 in 10.0 mi West 25.3 mph 51.8 mph N/A   Clear
3:53 PM 57.9 °F - 19.0 °F 22% 29.56 in 10.0 mi West 28.8 mph 40.3 mph N/A   Clear
4:53 PM 54.0 °F - 21.0 °F 28% 29.56 in 10.0 mi West 28.8 mph 39.1 mph N/A   Clear
5:53 PM 52.0 °F - 23.0 °F 32% 29.61 in 10.0 mi WSW 9.2 mph - N/A   Clear
6:53 PM 50.0 °F - 25.0 °F 38% 29.61 in 10.0 mi SW 9.2 mph - N/A   Clear
7:53 PM 48.9 °F - 25.0 °F 39% 29.58 in 10.0 mi SSW 11.5 mph - N/A   Clear
8:53 PM 51.1 °F - 25.0 °F 36% 29.55 in 10.0 mi SW 17.3 mph 31.1 mph N/A   Clear
9:53 PM 51.1 °F - 26.1 °F 38% 29.53 in 10.0 mi West 33.4 mph 47.2 mph N/A   Clear
10:53 PM 51.1 °F - 25.0 °F 36% 29.44 in 10.0 mi WSW 28.8 mph 43.7 mph N/A   Clear
11:53 PM 50.0 °F - 25.0 °F 38% 29.43 in 10.0 mi SW 19.6 mph 34.5 mph N/A   Clear